Location: Unspecified
(48.5670°N, 0.0000°E)
Time: 10:00:47
(UTC+00:00)

Altair - Visible Passes

Search period start: 25 August 2019 00:00
Search period end: 04 September 2019 00:00
Orbit: 1501 x 1683 km, 47.2° (Epoch: 24 August)

Date Brightness Start Highest point End Pass type
(mag) Time Alt. Az. Time Alt. Az. Time Alt. Az.
25 Aug 9.1 00:08:36 14° ESE 00:08:36 14° ESE 00:11:48 10° E visible
25 Aug 8.0 02:06:36 35° S 02:09:54 45° SE 02:18:46 10° ENE visible
25 Aug 7.6 04:04:37 11° WSW 04:14:00 78° SSE 04:23:25 10° E visible
25 Aug 9.3 23:44:40 12° ESE 23:44:40 12° ESE 23:46:00 10° E visible
26 Aug 8.0 01:42:40 38° S 01:44:48 42° SE 01:53:35 10° ENE visible
26 Aug 7.6 03:40:40 16° WSW 03:48:50 76° SSE 03:58:16 10° E visible
27 Aug 8.0 01:18:43 39° SSE 01:19:43 40° SE 01:28:23 10° ENE visible
27 Aug 7.5 03:16:43 22° WSW 03:23:40 74° SSE 03:33:07 10° E visible
28 Aug 8.1 00:54:44 37° SE 00:54:44 37° SE 01:03:11 10° ENE visible
28 Aug 7.5 02:52:45 29° WSW 02:58:30 72° SSE 03:07:58 10° E visible
29 Aug 8.3 00:30:45 34° SE 00:30:45 34° SE 00:37:58 10° ENE visible
29 Aug 7.5 02:28:45 36° SW 02:33:21 70° SSE 02:42:49 10° E visible
29 Aug 7.6 04:28:12 10° W 04:38:00 83° S 04:47:25 10° E visible
30 Aug 8.5 00:06:44 30° ESE 00:06:44 30° ESE 00:12:44 10° ENE visible
30 Aug 7.5 02:04:44 44° SW 02:08:11 68° SSE 02:17:40 10° ENE visible
30 Aug 7.6 04:02:58 10° W 04:12:49 84° S 04:22:16 10° E visible
30 Aug 8.7 23:42:42 25° ESE 23:42:42 25° ESE 23:47:28 10° E visible
31 Aug 7.5 01:40:42 53° SSW 01:43:02 66° SSE 01:52:31 10° ENE visible
31 Aug 7.5 03:38:42 14° W 03:47:38 84° S 03:57:07 10° E visible
31 Aug 8.9 23:18:40 21° E 23:18:40 21° E 23:22:11 10° E visible
01 Sep 7.5 01:16:40 59° S 01:17:53 63° SSE 01:27:21 10° ENE visible
01 Sep 7.5 03:14:40 19° W 03:22:27 84° S 03:31:58 10° E visible
01 Sep 9.1 22:54:37 17° E 22:54:37 17° E 22:56:53 10° E visible
02 Sep 7.5 00:52:37 61° SSE 00:52:44 61° SSE 01:02:12 10° ENE visible
02 Sep 7.5 02:50:37 24° W 02:57:16 84° S 03:06:49 10° E visible
02 Sep 9.2 22:30:34 13° E 22:30:34 13° E 22:31:32 10° E visible
03 Sep 7.6 00:28:34 56° SE 00:28:34 56° SE 00:37:02 10° ENE visible
03 Sep 7.4 02:26:34 31° W 02:32:04 83° S 02:41:40 10° E visible
03 Sep 7.6 04:27:01 10° W 04:36:45 71° SSW 04:46:04 10° ESE visible
